User: anonymous   Login
Location: Caltech
(34.1382°N, 118.1253°W)
Time: 09:50:28
(UTC-07:00)
Language:

NOSS 3-2 (A) - Orbit

View from above orbital plane
View from above orbital plane
View from above satellite
View from above satellite

Ground track
Ground track

The orbit data is extracted from the following two-line orbital elements,

1 28095U 03054A   16204.09441977 0.00000000  00000-0  00000-0 0    03
2 28095  63.4284  74.8354 0274000 357.6133   2.3867 13.41337630    02
Epoch (UTC): 22 July 2016 02:15:57
Eccentricity: 0.0274000
inclination: 63.4284°
perigee height: 899 km
apogee height: 1309 km
right ascension of ascending node: 74.8354°
argument of perigee: 357.6133°
revolutions per day: 13.41337630
mean anomaly at epoch: 2.3867°
orbit number at epoch: 0

The dashed part of the orbit path shows where the satellite is in the earth's shadow,  

DLR